{"data":{"norad_id":68527,"intl_designator":"2026-068V","name":"STARLINK-37248","alt_names":[],"object_type":"PAYLOAD","status":"ACTIVE","operator":null,"country":"US","launch_date":"2026-03-30","launch_site_code":"AFETR","launch_vehicle":null,"mission":null,"orbit_class":"UNKNOWN","rcs_meters":null,"size_class":null,"mass_kg":null,"dimensions":null,"purposes":["comms"],"wikipedia_slug":null,"has_3d_model":false,"image_url":null,"decayed_at":null,"tle_current":{"epoch":"2026-05-25T02:55:39.110880Z","epoch_age_seconds":61347,"freshness":"FRESH","line1":"1 68527U 26068V   26145.12198045  .00026756  00000+0  80019-3 0  9994","line2":"2 68527  53.1584 130.8781 0000900  52.8833 307.2252 15.34400004  8697","mean_motion":15.34400004,"eccentricity":9.0e-5,"inclination_deg":53.1584,"raan_deg":130.8781,"arg_perigee_deg":52.8833,"mean_anomaly_deg":307.2252,"bstar":0.00080019,"rev_number":869,"period_min":93.847757836685,"perigee_km":462.08755269771,"apogee_km":463.31890393881,"semimajor_km":6840.8402283183,"source":"CELESTRAK","updated_at":"2026-05-25T13:38:21.956685Z"}}}